Location: Cormont
(50.5693°N, 1.7416°E)
Time: 11:16:37
(UTC+00:00)

Okean 3 Rocket - Pass Details

Date: 21 October 2019
Orbit: 614 x 645 km, 82.5° (Epoch: 19 November)

Event Time Altitude Azimuth Distance (km) Brightness Sun altitude
Rises 18:52:21 0° 351° (N) 2,967 7.3 -20.1°
Reaches altitude 10° 18:54:38 10° 354° (N) 2,050 6.4 -20.5°
Maximum altitude 18:59:11 70° 78° (ENE) 686 3.5 -21.2°
Enters shadow 19:00:13 50° 141° (SE) 814 3.8 -21.4°
